This is the latest recevied weather packets stored in our database for station/object VK2XSE. If no packets are shown the sender has not sent any weather packets the latest 10 day(s).
| Time | Temp. | Humidity | Pressure | Rain* | Wind** | Luminosity | Snow |
|---|---|---|---|---|---|---|---|
| 1777611918 | 27.22° C | 32% | 1023.2 hPa | 0 mm | - | 274 W/m² | - |
| 1777611318 | 27.22° C | 33% | 1023.2 hPa | 0 mm | - | 139 W/m² | - |
| 1777610718 | 27.78° C | 33% | 1023.2 hPa | 0 mm | - | 154 W/m² | - |
| 1777610118 | 27.78° C | 32% | 1023.2 hPa | 0 mm | - | 172 W/m² | - |
| 1777609518 | 27.22° C | 32% | 1023.2 hPa | 0 mm | - | 523 W/m² | - |
| 1777608918 | 27.78° C | 32% | 1023.4 hPa | 0 mm | - | 154 W/m² | - |
| 1777608318 | 28.33° C | 31% | 1023.4 hPa | 0 mm | - | 250 W/m² | - |
| 1777607718 | 28.33° C | 32% | 1023.5 hPa | 0 mm | - | 482 W/m² | - |
| 1777607118 | 27.78° C | 32% | 1023.6 hPa | 0 mm | - | 692 W/m² | - |
| 1777606518 | 27.22° C | 32% | 1023.7 hPa | 0 mm | - | 166 W/m² | - |
| 1777605918 | 28.33° C | 32% | 1023.8 hPa | 0 mm | - | 150 W/m² | - |
| 1777605318 | 28.89° C | 31% | 1024 hPa | 0 mm | - | 683 W/m² | - |
| 1777604718 | 28.89° C | 33% | 1024.1 hPa | 0 mm | - | 629 W/m² | - |
| 1777604118 | 28.33° C | 35% | 1024.2 hPa | 0 mm | - | 552 W/m² | - |
| 1777603518 | 28.33° C | 35% | 1024.5 hPa | 0 mm | - | 186 W/m² | - |
| 1777602918 | 27.78° C | 34% | 1024.6 hPa | 0 mm | - | 733 W/m² | - |
| 1777602318 | 27.78° C | 36% | 1025 hPa | 0 mm | - | 390 W/m² | - |
| 1777601718 | 27.78° C | 37% | 1025.1 hPa | 0 mm | - | 614 W/m² | - |
| 1777601118 | 27.78° C | 37% | 1025.3 hPa | 0 mm | - | 586 W/m² | - |
| 1777600518 | 27.22° C | 38% | 1025.4 hPa | 0 mm | - | 616 W/m² | - |
| 1777599918 | 27.22° C | 38% | 1025.6 hPa | 0 mm | - | 536 W/m² | - |
| 1777599318 | 26.67° C | 40% | 1025.8 hPa | 0 mm | - | 608 W/m² | - |
| 1777598718 | 26.11° C | 40% | 1026 hPa | 0 mm | - | 575 W/m² | - |
| 1777598118 | 25.56° C | 41% | 1026.2 hPa | 0 mm | - | 602 W/m² | - |
| 1777597518 | 25.56° C | 41% | 1026.3 hPa | 0 mm | - | 614 W/m² | - |
* Rain latest hour (hover to see other rain measurements)
** Current wind speed in m/s (hover to see current wind gust speed)